Weather History for Colby, KS

Change the Weather History Date:

Monday, December 3, 2012

  Actual Average (KGLD) Record (KGLD)
Temperature  
Mean Temperature 42 °F 32 °F  
Max Temperature 57 °F 44 °F 74 °F (1959)
Min Temperature 26 °F 19 °F -4 °F (1919)
Degree Days  
Heating Degree Days 24 33  
Month to date heating degree days 99  
Since 1 July heating degree days 1418  
Cooling Degree Days 0 0  
Month to date cooling degree days 0  
Year to date cooling degree days 941  
Moisture  
Dew Point 27 °F    
Average Humidity 57    
Maximum Humidity 93    
Minimum Humidity 33    
Precipitation  
Precipitation 0.00 in 0.02 in 0.73 in (1953)
Month to date precipitation 0.05  
Year to date precipitation 19.25  
Snow  
Snow - 0.20 in - ()
Month to date snowfall 0.5  
Since 1 July snowfall 7.7  
Snow Depth -    
Sea Level Pressure  
Sea Level Pressure 29.90 in    
Wind  
Wind Speed 11 mph ()    
Max Wind Speed 30 mph    
Max Gust Speed 36 mph    
Visibility 10.0 miles    
Events      
T = Trace of Precipitation, MM = Missing Value Source: Averaged Metar Reports

Daily Weather History Graph

Daily Weather History Graph

Search for Another Location

Airport:

Trip Planner

Search our weather history database for the weather conditions in past years. The results will help you decide how hot, cold, wet, or windy it might be!

Date:

Astronomy

Dec. 03, 2012 Rise Set
Actual Time 7:47 AM CST 5:20 PM CST
Civil Twilight 7:17 AM CST 5:50 PM CST
Nautical Twilight 6:44 AM CST 6:23 PM CST
Astronomical Twilight 6:12 AM CST 6:56 PM CST
Moon 10:08 PM CST (12/3) 11:12 AM CST (12/3)
Length of Visible Light 10h 32m
Length of Day
9h 32m
Waning Gibbous, 78% of the Moon is Illuminated
Dec 3
Waning Gibbous
Dec 6
Last Quarter
Dec 13
New
Dec 19
First Quarter
Dec 28
Full

Hourly Weather History & Observations

Time (CST) Temp. Windchill Dew Point Humidity Pressure Visibility Wind Dir Wind Speed Gust Speed Precip Events Conditions
12:15 AM 41.0 °F 35.8 °F 33.8 °F 76% 29.62 in 10.0 mi SSW 8.1 mph - N/A   Clear
12:35 AM 37.4 °F 32.1 °F 32.0 °F 81% 29.62 in 10.0 mi SSW 6.9 mph - N/A   Clear
12:55 AM 35.6 °F 31.7 °F 32.0 °F 87% 29.60 in 10.0 mi SSW 4.6 mph - N/A   Clear
1:15 AM 33.8 °F 28.6 °F 32.0 °F 93% 29.59 in 10.0 mi South 5.8 mph - N/A   Clear
1:35 AM 35.6 °F 29.2 °F 32.0 °F 87% 29.58 in 10.0 mi SSW 8.1 mph - N/A   Clear
1:55 AM 33.8 °F 27.0 °F 30.2 °F 87% 29.57 in 10.0 mi SW 8.1 mph - N/A   Clear
2:15 AM 32.0 °F 24.8 °F 28.4 °F 87% 29.56 in 10.0 mi West 8.1 mph - N/A   Clear
2:35 AM 30.2 °F 23.4 °F 28.4 °F 93% 29.57 in 10.0 mi WSW 6.9 mph - N/A   Clear
2:55 AM 30.2 °F 25.4 °F 28.4 °F 93% 29.57 in 10.0 mi WSW 4.6 mph - N/A   Clear
3:15 AM 32.0 °F 25.6 °F 28.4 °F 87% 29.57 in 10.0 mi WSW 6.9 mph - N/A   Clear
3:35 AM 32.0 °F 23.0 °F 28.4 °F 87% 29.57 in 10.0 mi WSW 11.5 mph - N/A   Clear
3:55 AM 37.4 °F 30.3 °F 30.2 °F 75% 29.57 in 10.0 mi WSW 10.4 mph - N/A   Clear
4:15 AM 37.4 °F 26.9 °F 28.4 °F 70% 29.58 in 10.0 mi West 20.7 mph - N/A   Clear
4:35 AM 41.0 °F 31.9 °F 28.4 °F 61% 29.59 in 10.0 mi WNW 19.6 mph - N/A   Clear
4:55 AM 41.0 °F 32.2 °F 28.4 °F 61% 29.60 in 10.0 mi WNW 18.4 mph - N/A   Clear
5:15 AM 41.0 °F 33.9 °F 28.4 °F 61% 29.62 in 10.0 mi NW 12.7 mph - N/A   Clear
5:55 AM 41.0 °F 33.9 °F 26.6 °F 57% 29.65 in 10.0 mi NW 12.7 mph - N/A   Clear
6:15 AM 41.0 °F 33.5 °F 28.4 °F 61% 29.68 in 10.0 mi NW 13.8 mph - N/A   Clear
6:35 AM 41.0 °F 33.1 °F 28.4 °F 61% 29.70 in 10.0 mi WNW 15.0 mph - N/A   Clear
6:55 AM 41.0 °F 32.8 °F 28.4 °F 61% 29.71 in 10.0 mi WNW 16.1 mph - N/A   Clear
7:15 AM 42.8 °F 34.8 °F 28.4 °F 57% 29.74 in 10.0 mi WNW 17.3 mph - N/A   Clear
7:55 AM 44.6 °F 38.1 °F 28.4 °F 53% 29.78 in 10.0 mi NW 13.8 mph - N/A   Clear
8:15 AM 46.4 °F 40.7 °F 30.2 °F 53% 29.79 in 10.0 mi NW 12.7 mph - N/A   Clear
8:35 AM 46.4 °F 40.7 °F 30.2 °F 53% 29.82 in 10.0 mi NW 12.7 mph - N/A   Clear
8:55 AM 48.2 °F - 30.2 °F 50% 29.83 in 10.0 mi NW 15.0 mph - N/A   Clear
9:15 AM 48.2 °F - 30.2 °F 50% 29.84 in 10.0 mi NW 17.3 mph 23.0 mph N/A   Clear
9:35 AM 51.8 °F - 32.0 °F 47% 29.86 in 10.0 mi NW 23.0 mph 29.9 mph N/A   Clear
9:55 AM 51.8 °F - 32.0 °F 47% 29.89 in 10.0 mi NNW 19.6 mph 27.6 mph N/A   Clear
10:35 AM 55.4 °F - 37.4 °F 51% 29.93 in 10.0 mi NNW 20.7 mph 34.5 mph N/A   Clear
10:55 AM 57.2 °F - 39.2 °F 51% 29.93 in 10.0 mi NNW 29.9 mph 35.7 mph N/A   Clear
11:15 AM 55.4 °F - 39.2 °F 54% 29.95 in 10.0 mi NNW 25.3 mph 34.5 mph N/A   Clear
11:55 AM 55.4 °F - 37.4 °F 51% 29.95 in 10.0 mi North 25.3 mph 32.2 mph N/A   Clear
12:15 PM 55.4 °F - 37.4 °F 51% 29.96 in 10.0 mi North 26.5 mph 31.1 mph N/A   Clear
12:35 PM 57.2 °F - 37.4 °F 48% 29.95 in 10.0 mi North 26.5 mph 32.2 mph N/A   Clear
12:55 PM 57.2 °F - 35.6 °F 44% 29.95 in 10.0 mi North 25.3 mph 29.9 mph N/A   Clear
1:15 PM 57.2 °F - 33.8 °F 41% 29.96 in 10.0 mi North 20.7 mph 31.1 mph N/A   Clear
1:35 PM 57.2 °F - 33.8 °F 41% 29.97 in 10.0 mi North 24.2 mph - N/A   Clear
1:55 PM 55.4 °F - 33.8 °F 44% 29.97 in 10.0 mi North 20.7 mph 26.5 mph N/A   Clear
2:15 PM 57.2 °F - 32.0 °F 38% 29.98 in 10.0 mi North 15.0 mph 21.9 mph N/A   Clear
2:35 PM 57.2 °F - 33.8 °F 41% 29.99 in 10.0 mi North 16.1 mph 19.6 mph N/A   Clear
2:55 PM 57.2 °F - 32.0 °F 38% 30.00 in 10.0 mi NNW 19.6 mph - N/A   Clear
3:15 PM 57.2 °F - 30.2 °F 36% 30.00 in 10.0 mi North 17.3 mph 23.0 mph N/A   Clear
3:55 PM 55.4 °F - 26.6 °F 33% 30.02 in 10.0 mi North 15.0 mph 23.0 mph N/A   Clear
4:15 PM 55.4 °F - 26.6 °F 33% 30.03 in 10.0 mi NNW 13.8 mph - N/A   Clear
4:35 PM 55.4 °F - 26.6 °F 33% 30.05 in 10.0 mi North 10.4 mph 18.4 mph N/A   Clear
4:55 PM 53.6 °F - 24.8 °F 33% 30.07 in 10.0 mi North 8.1 mph - N/A   Clear
5:15 PM 50.0 °F - 23.0 °F 35% 30.07 in 10.0 mi North 9.2 mph - N/A   Clear
5:55 PM 44.6 °F 39.2 °F 23.0 °F 43% 30.09 in 10.0 mi North 10.4 mph - N/A   Clear
6:15 PM 46.4 °F 42.4 °F 23.0 °F 40% 30.09 in 10.0 mi NNW 8.1 mph - N/A   Clear
6:35 PM 37.4 °F 29.8 °F 21.2 °F 52% 30.11 in 10.0 mi NW 11.5 mph - N/A   Clear
6:55 PM 41.0 °F 35.2 °F 21.2 °F 45% 30.12 in 10.0 mi NW 9.2 mph - N/A   Clear
7:15 PM 37.4 °F 30.3 °F 21.2 °F 52% 30.12 in 10.0 mi NW 10.4 mph - N/A   Clear
7:35 PM 35.6 °F 28.6 °F 21.2 °F 56% 30.13 in 10.0 mi NW 9.2 mph - N/A   Clear
7:55 PM 33.8 °F 27.0 °F 19.4 °F 56% 30.14 in 10.0 mi NW 8.1 mph - N/A   Clear
8:15 PM 32.0 °F 24.8 °F 19.4 °F 60% 30.15 in 10.0 mi NW 8.1 mph - N/A   Clear
8:35 PM 30.2 °F 21.3 °F 17.6 °F 60% 30.16 in 10.0 mi West 10.4 mph - N/A   Clear
8:55 PM 30.2 °F 23.4 °F 17.6 °F 60% 30.15 in 10.0 mi West 6.9 mph - N/A   Clear
9:15 PM 28.4 °F 23.3 °F 15.8 °F 59% 30.15 in 10.0 mi West 4.6 mph - N/A   Clear
9:35 PM 30.2 °F 21.3 °F 15.8 °F 55% 30.16 in 10.0 mi WNW 10.4 mph - N/A   Clear
9:55 PM 30.2 °F 21.9 °F 17.6 °F 60% 30.17 in 10.0 mi WNW 9.2 mph - N/A   Clear
10:15 PM 32.0 °F 24.2 °F 15.8 °F 51% 30.17 in 10.0 mi NW 9.2 mph - N/A   Clear
10:35 PM 30.2 °F 22.6 °F 15.8 °F 55% 30.17 in 10.0 mi NW 8.1 mph - N/A   Clear
10:55 PM 30.2 °F 25.4 °F 15.8 °F 55% 30.18 in 10.0 mi SW 4.6 mph - N/A   Clear
11:15 PM 26.6 °F 19.1 °F 14.0 °F 59% 30.19 in 10.0 mi West 6.9 mph - N/A   Clear
11:35 PM 26.6 °F 19.1 °F 14.0 °F 59% 30.19 in 10.0 mi West 6.9 mph - N/A   Clear
11:55 PM 28.4 °F 19.7 °F 14.0 °F 55% 30.19 in 10.0 mi NW 9.2 mph - N/A   Clear